GFSSW_sfc_dewp_078.txt.gz
Dewpoint
56 56 57 57 57 57 57 57 57 58 58 58 58 58 59 60 58 51 36 43 54 72 72 59 60 58 55 53 52 47 45 41 32 32 42 40 43 43 44 43 43 46 50 54 58
55 56 56 56 56 56 57 57 57 57 57 58 58 58 59 60 46 30 56 72 70 72 56 55 54 55 52 50 43 41 41 40 30 31 39 40 39 42 58 49 46 48 53 56 58
55 56 56 56 56 56 56 56 56 56 57 57 58 58 59 58 39 24 73 72 70 70 48 51 51 44 45 43 33 31 35 27 28 30 31 42 39 43 51 51 48 49 53 55 58
55 55 55 55 55 55 56 56 56 56 56 57 58 59 59 48 25 49 74 72 71 54 50 48 47 39 41 37 29 27 28 29 26 26 27 31 34 38 38 44 44 50 53 54 57
55 55 54 54 55 55 55 56 55 55 56 56 58 59 44 24 26 61 75 71 61 54 54 46 42 36 35 33 27 27 27 27 27 27 26 31 31 33 36 42 44 50 52 54 55
54 55 55 55 55 55 55 55 55 55 56 57 58 59 43 21 39 56 54 58 46 51 51 44 40 33 27 25 24 26 28 27 26 27 28 31 31 32 35 40 45 48 51 53 54
54 54 54 55 55 54 54 54 54 55 56 57 58 51 27 17 15 50 49 46 43 44 40 37 39 32 29 24 26 25 24 25 26 26 28 34 31 31 37 40 45 47 51 54 56
54 54 54 54 54 54 54 53 54 54 56 58 59 49 24 15 14 27 44 45 42 40 37 34 29 21 19 21 23 24 23 20 22 24 32 32 34 38 39 40 44 47 49 52 55
53 53 53 54 53 53 53 52 53 55 57 58 50 39 19 33 13 10 34 41 41 39 36 27 20 20 22 21 19 21 20 20 21 31 34 34 32 37 38 37 44 47 51 51 54
53 53 53 53 53 52 52 53 52 53 51 44 39 29 29 17 12 10 21 32 37 35 33 22 17 18 18 15 14 17 18 19 21 31 33 32 27 34 35 34 37 42 52 54 53
52 53 53 53 52 51 47 36 29 37 31 24 18 17 15 10 12 9 9 20 32 26 23 21 16 14 13 16 15 14 14 16 20 20 23 23 24 25 28 24 25 42 50 54 54
52 52 52 52 52 51 47 30 21 24 19 19 23 21 17 18 9 11 12 11 18 21 18 17 15 16 12 11 12 13 13 15 17 18 19 18 19 22 24 27 26 26 42 49 52
52 52 52 52 50 44 28 17 23 21 17 16 13 11 15 15 12 13 12 15 12 14 15 16 13 12 10 10 10 11 14 18 16 15 15 17 18 25 24 28 27 27 31 44 50
52 51 51 51 40 27 21 25 20 18 18 16 14 12 8 8 15 15 12 15 17 15 15 15 14 11 10 8 6 8 12 11 10 11 9 12 11 32 26 31 27 26 31 31 50
51 51 51 50 35 29 23 19 18 20 15 13 11 15 8 4 9 16 14 11 15 16 16 16 15 14 13 11 9 10 10 9 9 10 11 12 10 20 33 35 26 30 34 35 42
51 50 50 33 39 34 24 18 20 18 16 13 10 7 6 4 5 10 15 12 12 15 17 16 15 15 14 11 9 8 10 10 12 9 12 17 12 16 19 34 35 34 39 39 38
50 49 47 39 21 20 23 21 15 15 17 13 10 5 5 6 4 6 11 17 12 16 17 16 15 16 15 11 11 10 9 9 12 11 11 18 13 23 24 33 33 32 35 36 40
49 48 45 38 33 31 27 18 19 17 17 14 10 6 5 5 6 5 8 12 16 14 12 14 14 16 16 13 13 12 11 9 18 12 13 24 19 21 27 29 28 24 29 38 40
48 31 23 29 36 32 24 17 17 19 17 17 14 10 7 7 8 6 7 6 10 15 20 14 14 13 12 13 12 13 15 8 12 15 11 13 21 28 33 24 23 25 41 43 51
38 34 30 31 35 30 20 20 19 16 14 17 15 14 12 9 8 10 13 8 5 7 15 17 19 12 12 14 13 12 10 13 14 21 20 15 24 29 36 26 44 49 50 55 56
39 24 37 36 37 27 17 15 16 15 14 16 17 16 15 15 18 16 18 12 9 6 8 7 17 14 15 18 14 12 11 12 9 18 15 17 24 38 41 44 51 53 55 57 59
24 20 35 34 29 24 18 17 22 11 12 12 17 17 16 17 19 19 18 27 27 19 8 10 13 18 12 15 16 13 14 15 15 26 21 24 24 32 38 43 50 53 55 58 60
27 20 27 27 23 20 22 13 11 9 11 13 15 17 17 17 20 17 18 24 25 24 33 31 19 19 18 15 16 14 13 15 22 30 29 23 32 37 42 44 52 55 56 60 62
26 23 26 35 28 25 24 22 15 12 10 11 13 14 16 17 18 18 18 19 22 23 55 40 25 28 11 20 22 19 12 13 18 26 23 15 25 42 44 50 50 56 59 60 63
33 24 29 34 35 33 24 23 22 24 22 19 20 16 15 18 18 17 17 17 19 38 28 32 37 27 19 12 13 12 15 15 15 18 20 41 47 52 56 55 54 57 58 59 62
32 27 31 30 36 36 34 29 26 27 26 25 27 24 20 22 20 20 18 22 22 31 32 38 35 30 24 15 13 12 14 17 18 13 13 21 39 48 48 54 54 53 57 59 60
29 29 25 31 30 32 33 39 35 31 28 26 27 29 23 21 20 18 15 21 24 35 41 44 39 37 29 22 23 20 18 18 18 27 25 23 46 56 56 58 59 56 54 56 57

GFSSW_sfc_dewp_081.txt.gz
Dewpoint
56 56 57 57 57 57 57 57 57 57 58 58 58 58 59 59 59 55 45 43 58 71 72 56 56 57 60 56 54 52 48 46 42 41 40 45 45 48 49 48 47 51 55 58 59
56 56 56 57 56 56 56 56 57 57 57 57 58 58 59 60 49 33 48 69 72 71 60 54 57 57 54 53 50 49 41 39 38 39 38 43 45 47 46 46 50 53 58 59 59
55 55 55 55 55 56 56 56 56 56 56 57 57 58 59 59 44 34 73 72 70 70 46 49 53 51 41 42 43 41 38 36 31 29 37 44 48 50 47 50 48 54 56 57 58
55 55 55 55 54 55 56 56 56 56 56 56 57 58 59 53 24 51 74 72 70 62 47 42 49 46 44 38 40 31 28 27 28 30 27 39 49 49 49 49 49 54 56 57 58
54 54 54 55 55 55 55 55 55 55 55 56 57 59 52 32 29 62 74 72 63 59 43 47 48 45 41 35 27 25 25 26 28 27 28 30 32 36 48 47 51 54 55 57 58
54 54 54 55 55 55 55 54 54 54 55 56 57 59 54 26 34 61 58 62 54 51 48 50 49 43 38 31 26 24 25 25 25 28 28 28 31 33 40 50 51 53 54 56 58
54 54 54 55 55 54 54 54 53 54 55 56 57 52 40 23 26 54 52 52 52 44 45 49 45 40 38 31 29 22 20 25 24 25 27 28 35 37 39 47 50 52 53 55 57
53 53 54 54 54 54 54 53 53 54 55 56 58 50 38 24 18 18 49 48 45 42 44 42 38 33 24 23 20 17 20 22 23 23 25 32 33 39 38 38 49 50 52 53 56
53 53 53 53 53 53 53 52 53 55 56 58 54 45 24 35 27 18 26 42 44 41 41 38 34 29 20 20 20 21 18 19 21 23 36 35 35 40 40 39 47 49 51 54 55
52 52 52 52 52 52 52 52 50 53 53 47 42 33 32 29 27 18 13 35 40 40 38 36 30 20 19 19 16 18 18 17 20 23 34 34 33 38 37 38 43 46 50 52 55
52 52 52 52 52 51 48 40 29 34 35 30 30 20 7 13 22 19 14 15 31 36 35 34 26 17 16 16 17 16 15 15 16 17 22 27 30 27 37 37 36 45 50 51 53
52 52 52 52 50 49 48 39 24 19 22 21 17 17 21 24 20 20 14 9 23 30 32 28 22 20 19 17 14 13 14 14 16 21 18 19 19 20 20 24 27 41 50 52 52
52 52 51 51 49 47 29 25 22 19 17 16 16 15 15 16 18 19 11 10 16 23 28 23 19 19 17 16 13 11 11 15 17 18 15 16 20 20 23 27 26 31 50 52 52
51 51 51 50 40 32 29 26 21 18 18 17 16 16 16 15 11 14 17 12 13 11 17 17 18 16 16 13 11 8 12 9 14 14 13 16 12 20 28 28 29 30 42 52 53
51 51 51 50 39 37 30 30 25 21 17 18 14 16 15 15 12 10 13 15 13 13 14 14 14 15 15 14 12 12 12 13 15 12 13 14 13 17 21 27 34 34 40 49 54
50 50 50 39 42 40 34 29 23 20 17 16 16 15 11 14 13 9 9 17 18 13 16 16 17 16 15 16 16 14 12 14 16 12 10 13 18 16 20 32 35 37 40 38 43
50 49 48 40 31 24 33 28 21 16 20 16 15 19 16 12 10 8 5 8 15 12 11 13 14 16 16 16 17 14 20 13 13 11 13 14 17 15 22 36 36 35 37 41 41
49 48 47 41 41 39 35 27 22 20 19 18 17 19 16 11 9 6 5 7 9 14 12 11 13 15 15 16 19 16 13 15 12 13 12 21 16 18 27 36 36 36 34 41 46
48 36 31 36 39 37 32 23 22 24 19 17 15 17 17 14 17 17 8 7 7 9 12 11 13 17 15 15 16 18 13 15 13 12 13 14 18 30 30 30 34 39 47 51 53
41 36 37 32 37 35 29 25 21 18 16 17 15 17 18 17 18 20 21 14 14 11 9 14 16 18 16 15 15 14 18 13 17 13 15 18 27 34 43 38 45 52 54 55 66
42 34 35 36 38 37 25 23 20 17 16 15 15 14 18 18 17 18 21 25 23 22 25 25 16 16 16 14 14 17 15 12 13 19 15 18 27 40 49 52 53 55 57 57 66
30 27 40 38 35 35 27 25 26 17 15 14 15 15 17 19 19 18 17 22 22 24 23 32 13 16 16 14 15 18 14 15 13 14 23 22 27 38 38 53 54 56 58 60 60
32 30 29 33 25 26 28 24 22 15 14 13 14 16 16 17 21 23 21 18 18 24 32 32 29 11 12 15 15 16 18 19 22 24 18 22 30 48 51 52 56 56 59 62 63
32 30 32 38 36 34 29 26 21 23 21 15 18 21 19 19 20 23 19 16 16 27 54 43 32 31 21 20 21 22 19 16 18 19 16 20 44 53 52 51 57 59 60 63 63
36 35 34 33 31 32 37 37 28 24 27 30 31 26 23 25 25 21 19 19 20 35 36 39 36 35 29 24 21 17 22 21 19 23 24 40 47 51 54 49 49 56 64 62 63
34 30 29 26 31 31 34 38 34 33 36 31 30 26 29 30 28 25 21 20 22 27 40 42 36 41 36 26 23 20 22 23 18 20 22 33 48 50 53 52 54 59 59 61 61
39 36 33 31 25 26 37 38 38 38 37 32 29 29 32 32 38 36 36 27 21 25 43 41 39 40 37 38 34 29 43 42 43 46 38 41 48 47 50 60 59 57 62 62 63

GFSSW_sfc_dewp_084.txt.gz
Dewpoint
55 55 55 56 57 57 57 57 57 57 57 57 58 58 58 59 59 56 38 38 49 72 69 60 56 53 58 60 63 58 51 50 47 41 41 44 44 48 49 50 54 56 57 58 60
55 55 56 55 56 56 56 57 57 57 57 57 57 58 58 59 54 38 50 68 69 72 61 55 56 55 57 56 55 52 47 47 48 44 42 44 42 44 46 50 55 58 58 59 59
55 55 55 56 55 56 56 56 56 56 56 56 57 58 58 59 33 29 73 71 72 69 51 51 51 53 51 48 42 44 45 41 34 39 42 44 46 45 45 48 54 56 57 58 59
54 54 54 54 55 56 56 56 56 56 56 56 57 58 59 53 1 51 72 72 72 61 52 41 42 48 46 45 42 33 29 26 27 31 38 45 48 47 46 46 55 58 58 58 58
54 54 54 54 55 55 55 55 55 55 55 56 57 58 48 24 28 59 73 70 62 58 50 41 47 48 45 43 35 30 25 24 22 26 28 49 49 46 47 49 56 58 58 58 58
54 54 54 54 54 54 54 54 54 54 55 56 57 58 49 24 24 65 61 61 55 53 47 44 50 50 45 40 35 30 23 19 20 25 27 36 35 45 48 50 55 56 57 58 58
53 54 54 54 54 54 54 53 53 53 54 56 56 54 44 14 27 56 57 54 54 51 44 48 47 50 42 37 32 21 18 19 19 25 25 25 26 33 48 49 54 55 56 58 59
52 53 53 54 54 53 53 52 52 54 55 56 57 53 36 31 24 22 43 51 50 49 44 44 47 40 32 26 20 20 20 18 20 23 23 26 23 38 49 50 52 54 55 57 59
52 52 52 53 53 52 52 51 53 54 57 59 54 45 27 38 32 25 24 39 48 45 43 41 40 36 27 19 18 20 18 19 19 21 22 23 32 38 46 50 52 52 54 56 57
53 52 52 52 52 51 51 52 52 54 52 52 45 28 25 15 30 24 21 32 45 44 42 40 36 29 20 18 15 17 17 18 19 18 18 24 33 37 41 49 51 52 53 54 55
53 52 52 51 51 50 48 41 28 18 20 19 20 26 25 23 21 24 23 25 38 41 38 38 34 29 24 18 18 19 18 18 18 18 19 16 24 36 39 43 48 51 52 53 54
53 52 52 51 50 50 47 35 34 26 19 20 20 19 18 18 16 18 21 21 25 34 36 35 32 33 28 21 17 16 15 15 15 15 18 17 17 21 27 36 37 45 50 52 53
53 52 52 51 49 40 28 25 27 26 15 15 16 16 16 16 15 16 19 20 17 18 27 30 32 32 25 22 17 16 14 14 13 14 16 20 16 16 19 24 25 32 45 51 53
53 52 51 50 31 38 29 29 29 28 16 17 16 17 16 17 15 16 17 19 14 10 22 26 30 25 22 20 18 15 16 14 12 13 12 15 12 16 15 18 25 27 47 50 52
52 52 51 50 39 37 25 30 32 21 15 21 19 19 16 15 16 16 16 13 13 13 17 17 21 17 18 18 17 15 15 13 13 12 12 11 11 15 20 19 33 38 43 51 52
52 51 50 43 42 41 36 37 23 17 16 19 19 18 16 17 16 16 14 13 16 14 17 14 17 15 14 14 16 18 17 16 16 11 7 10 13 10 15 19 34 40 51 52 52
51 50 48 42 31 30 36 26 17 14 18 17 18 17 15 17 14 16 15 13 9 14 16 16 14 16 16 17 17 21 12 11 11 8 10 10 13 13 17 24 36 39 50 53 53
50 48 46 44 43 40 32 20 15 18 19 20 18 16 17 17 18 14 13 12 9 16 15 14 13 13 14 16 15 16 11 12 6 9 11 15 14 14 22 20 32 39 42 43 50
48 38 34 35 41 37 27 20 18 21 20 17 16 16 14 16 18 20 20 13 8 9 11 13 11 15 13 13 16 14 14 13 10 14 11 14 12 25 34 34 36 35 41 49 57
43 39 35 37 39 33 23 24 18 19 17 17 15 17 12 15 16 17 20 24 22 20 26 22 17 13 13 14 13 15 16 10 13 14 9 16 18 28 38 37 44 46 52 59 61
40 30 28 36 37 31 23 21 20 21 21 17 14 12 14 17 16 14 18 19 22 24 25 26 23 20 19 16 14 15 15 14 11 15 11 14 22 35 47 49 51 54 63 63 66
32 22 29 36 31 32 28 26 29 21 22 17 15 16 19 15 13 18 19 21 19 25 27 33 25 19 16 16 17 14 13 14 11 9 20 19 19 48 42 54 55 58 63 67 68
30 29 28 31 23 21 25 28 29 23 22 16 13 20 20 18 14 17 21 17 18 25 26 31 27 23 11 12 16 13 18 19 16 16 12 15 23 52 54 57 59 61 63 65 66
31 26 30 32 31 32 33 31 32 35 32 32 23 16 21 23 22 18 20 20 18 20 51 40 32 30 27 21 18 18 19 20 18 14 14 17 29 49 52 55 56 61 64 64 66
35 31 27 25 24 24 27 29 35 35 36 34 31 31 29 26 26 29 33 34 27 36 27 38 30 37 34 34 32 22 20 22 22 21 17 16 39 49 53 53 55 62 63 64 65
31 29 30 27 26 23 29 35 35 37 37 35 33 33 26 28 33 36 34 34 22 28 32 40 31 37 30 35 34 30 40 35 47 49 47 38 46 52 52 51 56 59 61 64 64
37 36 31 31 23 22 24 26 31 35 37 36 36 34 32 38 41 42 42 38 35 28 22 37 35 32 26 35 36 39 43 46 49 51 51 44 50 56 59 54 58 50 51 64 65

GFSSW_sfc_dewp_087.txt.gz
Dewpoint
55 55 55 55 56 56 56 56 57 57 57 57 57 57 58 59 59 55 35 39 54 72 71 68 59 54 62 62 64 64 54 52 51 49 44 42 44 47 51 56 57 57 58 59 62
55 54 54 55 56 56 56 56 57 57 57 57 57 57 57 59 54 43 52 69 71 71 54 51 51 53 54 57 60 56 50 51 51 50 47 41 44 45 50 54 55 57 58 60 64
55 55 55 55 55 55 56 56 56 56 56 56 57 57 58 59 30 11 71 71 70 71 55 55 55 54 55 55 54 53 50 48 44 41 38 41 43 45 48 52 55 55 57 60 64
53 53 54 55 55 55 55 55 55 55 56 56 56 57 58 54 1 41 73 72 71 62 50 40 42 44 48 46 45 38 41 34 25 25 27 43 43 44 48 47 53 57 57 59 61
53 53 53 53 54 55 55 55 54 54 55 56 56 57 46 16 12 46 72 71 64 55 45 37 41 46 45 45 42 36 32 26 21 20 25 42 45 44 45 51 57 58 57 58 59
54 54 54 54 54 54 54 54 53 54 54 55 56 57 44 14 14 65 60 57 54 52 46 43 38 49 48 45 38 38 29 21 20 20 27 46 47 46 47 56 57 57 58 58 58
54 53 53 53 54 54 53 53 53 54 55 55 56 52 40 9 25 57 56 48 50 48 38 45 42 48 48 42 35 25 19 20 20 24 27 33 36 46 48 56 57 57 57 58 59
54 54 53 53 53 53 53 52 53 54 55 56 57 52 19 28 32 25 38 50 52 52 43 40 48 45 39 37 21 21 20 18 21 21 22 23 21 22 41 54 55 56 57 58 59
54 54 53 53 53 53 52 52 54 55 54 59 52 40 19 37 34 32 28 33 44 48 47 45 42 40 37 24 20 18 17 17 19 22 23 21 19 21 48 51 53 55 56 57 58
54 54 53 53 52 51 51 53 53 54 54 53 45 28 21 17 24 25 23 23 38 44 45 42 38 33 22 20 23 20 16 17 19 19 18 17 17 18 49 49 51 53 55 56 57
54 54 53 52 52 51 49 33 27 23 24 20 18 19 18 20 25 21 23 21 30 43 41 39 35 33 31 23 21 19 18 18 19 19 21 16 17 17 38 49 50 51 54 55 56
54 54 53 52 50 51 41 21 27 27 24 22 21 19 18 22 20 19 21 19 31 34 40 37 35 36 35 29 21 19 17 16 17 17 16 16 17 19 34 47 49 51 52 53 54
54 54 53 52 50 38 33 25 29 28 17 17 17 16 16 18 17 17 19 21 20 21 33 34 36 37 34 32 26 19 15 15 15 16 15 16 17 15 17 25 36 49 52 53 53
54 53 52 50 37 37 27 28 30 31 17 16 17 16 17 17 15 18 18 19 18 16 17 29 33 33 30 28 26 22 21 18 17 18 13 16 11 15 14 17 20 25 46 51 52
54 53 52 50 37 34 21 33 34 21 11 19 20 19 19 16 17 19 19 18 16 16 19 20 23 27 28 28 22 21 21 18 18 15 12 13 10 13 16 13 14 21 34 42 51
53 52 51 43 41 41 39 36 22 17 14 19 20 19 17 17 18 17 14 16 17 15 15 14 18 21 22 22 21 21 20 16 15 11 9 10 10 11 12 11 20 34 39 46 49
52 50 48 43 30 34 37 23 16 15 19 18 19 16 17 14 17 17 19 10 9 12 15 15 14 15 18 17 19 17 14 14 13 10 11 10 12 13 17 17 23 23 33 51 52
50 49 45 44 44 40 28 17 14 18 18 20 17 16 15 14 17 18 20 15 12 13 14 14 13 15 17 15 14 16 14 15 10 11 12 14 11 13 16 17 21 25 36 53 52
48 39 36 33 42 37 22 15 16 19 20 17 17 16 15 13 18 16 19 21 18 14 12 14 12 15 15 15 16 16 14 15 11 12 11 13 14 19 24 33 35 30 48 53 53
41 38 33 38 40 28 18 21 19 20 17 19 17 18 12 13 12 14 17 21 20 22 26 17 21 21 19 16 16 13 15 12 13 14 12 12 15 18 23 38 44 40 45 52 57
32 24 25 38 36 29 21 21 21 21 21 20 16 16 13 15 14 12 16 19 20 23 27 26 22 21 24 18 16 16 15 16 13 12 10 11 15 25 37 50 55 64 65 66 68
30 20 29 35 31 32 29 27 30 29 31 25 19 18 14 15 16 16 15 20 19 24 25 33 24 24 23 23 18 16 14 14 16 12 18 16 15 47 47 54 62 65 67 68 68
26 28 30 31 28 21 24 29 30 31 33 23 23 19 18 22 22 20 23 25 32 23 30 33 28 26 26 24 20 16 15 14 16 15 14 16 17 51 56 58 62 64 66 68 68
28 26 28 30 28 29 26 25 29 35 35 35 30 32 28 25 23 24 31 33 33 31 55 42 32 30 27 28 30 30 20 19 18 17 16 14 14 45 55 58 61 63 65 66 67
33 31 27 23 25 24 25 28 32 31 37 36 34 33 30 26 32 34 35 35 33 43 34 31 25 35 34 34 35 34 38 20 25 31 19 23 25 39 54 54 56 61 61 64 66
30 29 31 28 26 22 27 25 28 26 36 36 34 36 31 32 36 36 37 35 33 32 34 35 29 37 34 32 37 40 45 45 46 49 46 46 46 54 56 59 60 60 61 64 65
37 34 31 31 23 23 23 25 25 26 33 35 37 36 38 37 40 41 41 40 38 38 34 30 33 30 26 29 36 39 44 48 50 51 51 45 50 57 56 57 57 57 59 61 64

GFSSW_sfc_dewp_093.txt.gz
Dewpoint
55 55 55 56 56 56 56 56 57 57 57 57 57 58 58 58 58 55 37 39 47 71 73 65 62 64 66 62 63 64 54 45 39 38 36 42 43 48 54 55 56 57 56 58 65
55 55 55 56 57 57 56 56 57 57 57 57 57 57 58 58 52 41 53 65 70 73 64 57 58 62 61 61 61 60 53 46 47 44 40 37 39 36 52 54 56 57 59 63 66
55 56 56 56 56 57 57 57 57 57 56 56 57 57 58 57 30 7 69 70 72 65 59 54 57 59 58 57 59 58 51 51 49 47 45 35 27 29 46 51 53 55 58 63 65
56 56 56 56 56 57 57 57 57 56 56 56 56 57 58 51 12 41 71 71 71 55 51 51 55 54 51 50 55 54 55 53 49 42 33 23 27 39 45 44 52 56 59 62 63
57 57 56 57 57 57 57 57 56 56 56 56 56 56 45 13 12 62 73 72 65 54 47 50 50 49 44 49 51 53 50 45 46 39 26 24 28 34 45 45 52 57 61 61 62
57 57 56 56 56 56 56 56 55 55 56 56 56 56 35 20 23 63 66 64 59 55 47 41 39 44 35 35 38 43 44 42 38 25 26 26 35 44 43 45 51 59 60 60 61
57 57 56 56 56 56 56 55 55 55 56 57 56 51 31 19 48 58 56 54 54 52 45 44 42 37 46 42 40 42 38 37 31 27 27 32 26 38 42 51 50 57 59 60 61
57 57 56 56 56 56 55 54 54 55 58 58 56 49 24 20 28 24 31 27 39 47 37 29 38 36 33 32 33 32 24 30 27 24 22 24 27 26 34 49 48 53 56 59 62
57 57 56 56 56 55 54 53 54 55 57 58 49 30 19 36 23 27 27 22 28 42 47 43 40 35 41 30 24 29 28 31 29 22 21 21 21 22 24 24 31 48 56 57 61
57 57 56 56 55 54 53 53 51 56 56 54 47 32 24 16 21 23 26 24 23 40 43 41 40 35 35 32 21 20 25 26 28 26 21 20 22 22 20 22 27 44 56 56 58
57 57 56 55 54 52 49 27 22 22 25 21 20 20 17 19 21 20 22 22 23 31 22 38 29 26 26 31 27 24 29 29 26 26 24 26 24 22 24 22 23 44 55 56 57
57 57 56 55 53 52 37 23 23 25 23 25 24 23 23 22 18 19 22 19 20 15 32 31 25 30 33 29 33 30 29 30 27 22 21 21 25 26 25 24 24 37 52 56 56
57 56 55 54 52 42 34 26 30 30 23 19 19 18 17 18 18 18 20 20 22 20 24 18 18 33 34 32 34 33 32 31 29 29 26 26 22 24 23 24 25 31 47 53 56
56 56 55 52 45 39 26 31 35 32 19 16 18 18 17 17 17 19 20 20 20 19 24 22 23 28 31 34 35 29 33 32 30 30 26 21 18 25 24 25 24 23 35 50 55
55 55 54 51 42 38 30 35 35 27 8 18 19 21 19 17 18 19 19 19 18 18 20 15 22 25 26 27 33 33 34 33 31 29 23 24 15 20 27 24 24 22 24 31 49
54 54 52 45 45 42 37 36 27 16 7 18 20 18 18 17 15 18 17 19 20 18 19 17 18 25 24 28 32 28 26 23 20 19 20 22 17 17 20 27 24 25 25 27 29
53 51 49 45 32 39 36 26 17 8 19 19 18 19 18 16 15 17 22 18 15 17 18 16 14 14 17 17 23 28 23 18 17 16 16 21 17 22 24 25 27 25 26 28 32
51 49 46 44 42 40 30 22 16 16 18 20 20 18 15 15 13 16 19 18 19 15 17 14 11 15 18 17 18 23 21 17 16 15 16 22 17 19 28 26 27 27 27 31 41
47 36 33 34 39 40 24 20 20 20 20 24 22 15 15 16 15 15 17 18 23 26 26 20 14 15 17 18 18 20 19 17 21 20 14 15 21 24 28 27 28 40 55 55 50
36 32 30 38 41 29 21 23 20 19 19 21 23 18 18 18 15 17 17 18 28 30 30 27 24 21 20 17 18 23 20 15 20 23 21 18 22 20 29 29 36 54 62 62 60
33 27 34 35 38 34 26 25 24 26 24 25 22 20 20 18 16 17 18 23 28 30 32 30 28 27 27 23 21 18 17 19 19 22 17 18 18 32 33 42 51 62 65 64 64
31 31 32 33 34 32 28 28 32 28 32 29 27 25 22 17 23 19 22 28 30 33 30 32 29 28 25 29 28 23 23 21 20 27 20 21 19 32 47 57 63 63 65 65 66
32 28 31 34 30 27 28 26 28 30 31 34 34 31 29 24 28 24 30 31 33 34 34 35 31 24 24 26 30 29 33 34 40 31 26 18 19 36 54 60 61 63 64 65 65
30 28 31 32 30 28 27 26 27 31 33 37 37 35 35 30 32 33 31 32 33 33 52 41 34 31 23 28 29 33 34 42 45 31 22 20 24 29 53 58 60 61 64 66 67
31 32 30 27 27 26 27 26 28 29 31 36 36 31 34 33 32 32 32 32 31 43 37 36 35 33 31 30 30 31 30 38 44 44 36 22 25 50 56 57 59 60 62 63 66
34 32 32 30 29 25 28 29 26 26 28 33 32 32 36 34 32 31 34 35 33 33 36 38 33 35 31 29 28 27 36 39 41 45 45 43 40 55 57 57 59 60 61 62 63
38 36 33 32 25 23 21 26 25 25 29 33 34 35 33 34 37 38 38 40 40 39 38 39 36 34 28 29 28 31 40 42 43 46 49 47 53 54 55 54 56 59 60 61 62